807  
NZUS99 KIND 201009  
HRRIND  
 
WEATHER ROUNDUP FOR INDIANA AND SURROUNDING STATES  
NATIONAL WEATHER SERVICE INDIANAPOLIS IN  
600 AM EDT FRI APR 20 2018  
   
..INDIANA
 
 
 
CITY SKY/WX TMP DP RH WIND PRES REMARKS  
INDIANAPOLIS FAIR 32 20 61 NW6 30.44R WCI 26  
EAGLE CREEK FAIR 34 20 56 N7 30.44R WCI 28  
ZIONSVILLE FAIR 30 22 73 N5 30.45R WCI 25  
MOUNT COMFORT FAIR 28 25 86 N3 30.44R  
GREENWOOD FAIR 32 21 63 N6 30.44R WCI 27  
SHELBYVILLE FAIR 31 22 69 N5 30.43R WCI 26  

 
 
CITY SKY/WX TMP DP RH WIND PRES REMARKS  
LAFAYETTE FAIR 27 23 85 CALM 30.46S  
KOKOMO FAIR 28 23 81 NW3 30.46R  
FRANKFORT FAIR 33 23 66 CALM 30.47R  
CRAWFORDSVILLE FAIR 31 22 70 N5 30.46R WCI 26  
MUNCIE FAIR 32 21 64 CALM 30.43R  
GREENCASTLE FAIR 32 21 64 N6 30.45S WCI 26  
TERRE HAUTE FAIR 30 21 69 NE3 30.46R  
BLOOMINGTON FAIR 33 18 53 N7 30.43R WCI 27  
BEDFORD FAIR 36 14 41 CALM 30.42R  
SEYMOUR FAIR 36 21 55 N6 30.43R WCI 31  
NORTH VERNON FAIR 30 23 74 N7 30.43R WCI 23  

 
 
CITY SKY/WX TMP DP RH WIND PRES REMARKS  
GARY CLEAR 30 30 100 CALM 30.48R  
VALPARAISO FAIR 33 25 72 CALM 30.47R  
LA PORTE FAIR 26 24 91 CALM 30.47R  
MICHIGAN CITY FAIR 28 28 100 CALM 30.48R  
SOUTH BEND FAIR 26 23 88 NW3 30.46R  
GOSHEN FAIR 29 23 78 VRB5 30.44R WCI 24  
ANGOLA FAIR 30 21 69 N5 30.43R WCI 25  
KENDALLVILLE FAIR 31 15 51 N3 30.44R  
AUBURN FAIR 30 21 69 N6 30.44R WCI 24  
RENSSELAER FAIR 30 23 74 CALM 30.47R  
KNOX FAIR 27 23 86 CALM 30.46S  
ROCHESTER FAIR 32 27 80 CALM 30.46R  
WARSAW FAIR 28 25 86 CALM 30.45R  
FORT WAYNE FAIR 31 22 69 NW5 30.44R WCI 26  
MONTICELLO FAIR 27 21 80 W3 30.46R  
LOGANSPORT FAIR 28 23 80 CALM 30.47R  
PERU/GRISSOM FAIR 29 24 83 CALM 30.44R  
HUNTINGTON FAIR 29 22 73 CALM 30.44R  
MARION FAIR 30 23 73 CALM 30.45R  
RICHMOND FAIR 30 25 80 N6 30.42R WCI 24  
BATESVILLE CLEAR 32 23 69 MISG 30.41S  
WASHINGTON FAIR 32 20 61 N5 30.44S WCI 27  
FRENCH LICK FAIR 36 12 38 NE8 30.42S WCI 29  
MADISON FAIR 32 27 80 CALM 30.43R  
HUNTINGBURG FAIR 35 19 52 N7 30.42S WCI 29  
EVANSVILLE FAIR 38 21 50 N12 30.42S WCI 30  

 
   
..ILLINOIS
 
 
 
CITY SKY/WX TMP DP RH WIND PRES REMARKS  
CHICAGO FAIR 37 23 56 W3 30.46R  
MOLINE FAIR 26 23 88 CALM 30.49R  
ROCKFORD FAIR 26 21 81 CALM 30.50R  
KANKAKEE FAIR 29 23 77 W3 30.48R  
PEORIA FAIR 31 25 78 NE3 30.48S  
BLOOMINGTON FAIR 31 25 78 N6 30.47S WCI 25  
CHAMPAIGN FAIR 30 23 75 N5 30.46R WCI 25  
RANTOUL FAIR 33 26 75 N3 30.47R  
DANVILLE FAIR 28 23 80 N5 30.45R WCI 23  
QUINCY CLEAR 34 24 67 NE6 30.46R WCI 29  
SPRINGFIELD FAIR 34 28 79 NE5 30.47S WCI 30  
DECATUR FAIR 29 25 85 NE3 30.46S  
MATTOON FAIR 30 21 69 N6 30.45R WCI 24  
PARIS FAIR 28 24 82 N3 30.47S  
EFFINGHAM FAIR 32 28 83 CALM 30.48S  
ROBINSON FAIR 31 22 68 CALM 30.47R  
OLNEY FAIR 37 14 39 N3 30.45F  
LAWRENCEVILLE FAIR 36 18 48 N5 30.45R WCI 32  
MOUNT VERNON FAIR 36 25 64 N3 30.45R  
FAIRFIELD FAIR 37 22 56 N3 30.44S  
MOUNT CARMEL FAIR 36 17 47 CALM 30.44S  
CARMI FAIR 36 24 63 N9 30.43S WCI 29  

 
   
..KENTUCKY
 
 
 
CITY SKY/WX TMP DP RH WIND PRES REMARKS  
LOUISVILLE FAIR 38 23 55 N10 30.41S WCI 31  
PADUCAH FAIR 37 30 75 CALM 30.40R  
OWENSBORO FAIR 40 21 46 N9 30.41R WCI 34  
FORT KNOX FAIR 37 22 54 N9 30.39S WCI 31  
LEXINGTON FAIR 35 26 69 N6 30.39R WCI 30  
BOWLING GREEN FAIR 36 33 89 CALM 30.38R  
JACKSON FAIR 37 29 72 NE3 30.35R  

 
   
..OHIO
 
 
 
CITY SKY/WX TMP DP RH WIND PRES REMARKS  
CINCINNATI FAIR 36 28 73 N9 30.40R WCI 29  
DAYTON FAIR 31 28 89 NW5 30.41R WCI 26  
TOLEDO FAIR 31 23 72 CALM 30.40R  
DEFIANCE FAIR 31 23 72 NW6 30.43R WCI 25  
FINDLAY FAIR 32 25 75 W5 30.39R WCI 27  
LIMA FAIR 32 27 81 NW6 30.40R WCI 26  
WRIGHT-PAT AFB FAIR 32 28 84 CALM 30.40R  
COLUMBUS FAIR 31 25 78 N3 30.38R  
CLEVELAND FAIR 31 26 82 W6 30.38S WCI 25  

 
   
..MICHIGAN
 
 
 
CITY SKY/WX TMP DP RH WIND PRES REMARKS  
DETROIT FAIR 33 19 56 NW5 30.40R WCI 29  
GRAND RAPIDS FAIR 33 19 56 W5 30.44R WCI 29  
LANSING FAIR 30 18 60 NW5 30.43R WCI 25  
KALAMAZOO FAIR 32 17 54 NW3 30.45R  
BATTLE CREEK FAIR 30 18 60 CALM 30.44R  
MARSHALL FAIR 26 18 70 W3 30.43R  
JACKSON FAIR 28 20 71 W5 30.42R WCI 23  
BENTON HARBOR FAIR 25 21 85 E3 30.46R  
STURGIS FAIR 33 19 54 N5 30.43R WCI 29  
COLDWATER FAIR 30 20 67 CALM 30.44R  
HILLSDALE FAIR 30 19 64 W6 30.41R WCI 24  

 
   
..OTHER LOCATIONS
 
 
 
CITY SKY/WX TMP DP RH WIND PRES REMARKS  
SAINT LOUIS MO CLEAR 39 29 67 E7 30.44S WCI 34  
CAPE GIRARDEAU FAIR 34 31 88 CALM 30.41S  
MILWAUKEE WI FAIR 33 23 66 NW3 30.47R  
NASHVILLE TN FAIR 37 32 82 CALM 30.36S  

 
 
 
 
CLICK HERE TO GO TO PREVIOUS BULLETINS.

The Nexlab IN Page Main Text Page